Weather History for Whitefield, NH

Change the Weather History Date:

Tuesday, March 5, 2013

  Actual Average Record
Temperature  
Mean Temperature 29 °F -  
Max Temperature 37 °F 31 °F 48 °F (2011)
Min Temperature 21 °F 7 °F -14 °F (2009)
Degree Days  
Heating Degree Days 36    
Moisture  
Dew Point 24 °F    
Average Humidity 79    
Maximum Humidity 92    
Minimum Humidity 60    
Precipitation  
Precipitation 0.00 in - - ()
Sea Level Pressure  
Sea Level Pressure 30.02 in    
Wind  
Wind Speed 1 mph (East)    
Max Wind Speed 8 mph    
Max Gust Speed -    
Visibility 10 miles    
Events Snow    
Averages and records for this station are not official NWS values.
T = Trace of Precipitation, MM = Missing Value Source: NWS Daily Summary

Daily Weather History Graph

Daily Weather History Graph

Search for Another Location

Airport:

Trip Planner

Search our weather history database for the weather conditions in past years. The results will help you decide how hot, cold, wet, or windy it might be!

Date:

Astronomy

Mar. 05, 2013 Rise Set
Actual Time 6:16 AM EST 5:39 PM EST
Civil Twilight 5:47 AM EST 6:08 PM EST
Nautical Twilight 5:13 AM EST 6:42 PM EST
Astronomical Twilight 4:39 AM EST 7:16 PM EST
Moon 1:35 AM EST (3/5) 11:05 AM EST (3/5)
Length of Visible Light 12h 21m
Length of Day
11h 23m
Last Quarter, 41% of the Moon is Illuminated
Mar 5
Last Quarter
Mar 11
New
Mar 19
First Quarter
Mar 27
Full
Apr 3
Last Quarter

Hourly Weather History & Observations

Time (EST) Temp. Windchill Dew Point Humidity Pressure Visibility Wind Dir Wind Speed Gust Speed Precip Events Conditions
12:52 AM 21.9 °F - 18.0 °F 85% 29.87 in 10.0 mi Calm Calm - N/A   Overcast
2:52 AM 23.0 °F 18.4 °F 18.0 °F 81% 29.90 in 10.0 mi SW 3.5 mph - N/A   Overcast
3:52 AM 23.0 °F - 18.0 °F 81% 29.92 in 10.0 mi Calm Calm - N/A   Overcast
4:52 AM 23.0 °F - 18.0 °F 81% 29.95 in 10.0 mi Calm Calm - N/A   Overcast
5:43 AM 23.0 °F - 17.6 °F 80% 29.92 in 10.0 mi Calm Calm - N/A   Overcast
5:52 AM 23.0 °F - 18.0 °F 81% 29.97 in 10.0 mi Calm Calm - N/A   Overcast
6:52 AM 23.0 °F - 19.0 °F 85% 29.99 in 10.0 mi Calm Calm - N/A   Overcast
7:52 AM 24.1 °F - 19.0 °F 81% 30.02 in 10.0 mi Calm Calm - N/A   Overcast
8:52 AM 25.0 °F - 19.9 °F 81% 30.03 in 10.0 mi Calm Calm - N/A   Overcast
9:52 AM 27.0 °F - 21.0 °F 78% 30.04 in 10.0 mi Calm Calm - N/A   Overcast
10:47 AM 28.4 °F - 21.2 °F 74% 29.99 in 10.0 mi Calm Calm - N/A   Overcast
10:52 AM 28.9 °F - 21.9 °F 75% 30.04 in 10.0 mi Calm Calm - N/A   Overcast
11:52 AM 30.0 °F - 23.0 °F 75% 30.04 in 10.0 mi Calm Calm - N/A   Overcast
12:10 PM 32.0 °F - 24.8 °F 75% 29.99 in 10.0 mi Calm Calm - N/A   Overcast
12:52 PM 35.1 °F 32.2 °F 25.0 °F 67% 30.03 in 10.0 mi SE 3.5 mph - N/A   Overcast
1:52 PM 37.9 °F 34.4 °F 25.0 °F 60% 30.03 in 10.0 mi NE 4.6 mph - N/A   Partly Cloudy
2:36 PM 37.4 °F 33.8 °F 26.6 °F 65% 29.99 in 10.0 mi East 4.6 mph - N/A   Overcast
2:52 PM 37.9 °F 33.5 °F 26.1 °F 62% 30.04 in 10.0 mi NNE 5.8 mph - N/A   Overcast
3:52 PM 37.9 °F - 27.0 °F 65% 30.05 in 10.0 mi Calm Calm - N/A   Overcast
4:17 PM 37.4 °F - 28.4 °F 70% 30.01 in 10.0 mi Calm Calm - N/A   Overcast
4:52 PM 37.9 °F - 28.0 °F 68% 30.06 in 10.0 mi Calm Calm - N/A   Overcast
5:52 PM 35.1 °F - 28.9 °F 78% 30.07 in 10.0 mi Calm Calm - N/A   Mostly Cloudy
6:52 PM 33.1 °F - 28.9 °F 85% 30.09 in 10.0 mi Calm Calm - N/A   Overcast
7:52 PM 34.0 °F - 28.9 °F 82% 30.09 in 10.0 mi Calm Calm - N/A   Overcast
8:27 PM 32.0 °F - 28.4 °F 87% 30.04 in 10.0 mi Calm Calm - N/A   Overcast
8:44 PM 32.0 °F - 28.4 °F 87% 30.04 in 10.0 mi Calm Calm - N/A   Overcast
8:52 PM 32.0 °F - 30.0 °F 92% 30.08 in 10.0 mi Calm Calm - N/A   Overcast
9:07 PM 32.0 °F - 28.4 °F 87% 30.04 in 10.0 mi Calm Calm - N/A   Overcast
9:52 PM 32.0 °F - 28.9 °F 88% 30.09 in 10.0 mi Calm Calm - N/A   Overcast
10:05 PM 32.0 °F - 28.4 °F 87% 30.04 in 10.0 mi Calm Calm - N/A   Overcast
10:52 PM 32.0 °F - 30.0 °F 92% 30.09 in 10.0 mi Calm Calm - N/A   Overcast
11:52 PM 34.0 °F 27.2 °F 30.0 °F 85% 30.11 in 6.0 mi East 8.1 mph - 0.00 in Snow Light Snow